Retour au catalogue

STARLINK-11399

ActifCommunicationsVLEO
NORAD 63063·PAYLOAD·🇺🇸 United States

Lancé Feb 21, 2025 depuis Cape Canaveral Space Force Station

Loading…

Prochains Passages (prochaines 24 heures)

TLE

FraisSource: CelesTrak SupGP

Époque: Sep 14, 2026, 21:22 UTC

1 63063C 25035M   26257.89076389  .00040554  00000+0  31522-3 0  2575
2 63063  43.0004 314.6018 0001696 269.1211 340.0187 15.70800166    16

Suivez STARLINK-11399 en temps réel avec AllMySat

Download on the App Store